• In Belarus
  • List of Countries
  • For 7 days
  • Water Temperature
  • Satellite Maps
  • Weather Map
  • Weather Widgets
  • user-avatar
    Login

    Hourly Weather Chuhynka

    Today, 18 December, Monday

    Time Temperature Precipitation Wind Pressure Humidity
    00:00 +3°C° 0 mm 6 mps 753 mmHg 85%
    01:00 +3°C° 0.1 mm 6 mps 753 mmHg 86%
    02:00 +3°C° 0.1 mm 6 mps 752 mmHg 86%
    03:00 +3°C° 0.1 mm 6 mps 752 mmHg 87%
    04:00 +3°C° 0.3 mm 7 mps 752 mmHg 87%
    05:00 +3°C° 0.3 mm 7 mps 752 mmHg 87%
    06:00 +3°C° 0.3 mm 7 mps 751 mmHg 87%
    07:00 +3°C° 0.2 mm 7 mps 751 mmHg 87%
    08:00 +3°C° 0.2 mm 7 mps 751 mmHg 86%
    09:00 +2°C° 0.2 mm 8 mps 751 mmHg 86%
    10:00 +4°C° 0.2 mm 8 mps 751 mmHg 85%
    11:00 +4°C° 0.2 mm 8 mps 751 mmHg 84%
    12:00 +4°C° 0.2 mm 8 mps 751 mmHg 83%
    13:00 +5°C° 0.6 mm 8 mps 750 mmHg 84%
    14:00 +5°C° 0.6 mm 8 mps 750 mmHg 84%
    15:00 +5°C° 0.6 mm 8 mps 750 mmHg 85%
    16:00 +5°C° 0.1 mm 8 mps 750 mmHg 84%
    17:00 +5°C° 0.1 mm 8 mps 750 mmHg 84%
    18:00 +6°C° 0.1 mm 8 mps 750 mmHg 84%
    19:00 +6°C° 0 mm 7 mps 750 mmHg 85%
    20:00 +5°C° 0 mm 7 mps 750 mmHg 86%
    21:00 +5°C° 0 mm 6 mps 750 mmHg 87%
    22:00 +5°C° 0 mm 6 mps 750 mmHg 87%
    23:00 +6°C° 0 mm 5 mps 751 mmHg 88%

    Tomorrow, 19 December, Tuesday

    Time Temperature Precipitation Wind Pressure Humidity
    00:00 +6°C° 0 mm 5 mps 751 mmHg 88%
    01:00 +5°C° 0.2 mm 4 mps 751 mmHg 87%
    02:00 +5°C° 0.2 mm 4 mps 751 mmHg 87%
    03:00 +5°C° 0.2 mm 3 mps 752 mmHg 86%
    04:00 +4°C° 0.1 mm 3 mps 752 mmHg 86%
    05:00 +4°C° 0.1 mm 3 mps 752 mmHg 86%
    06:00 +3°C° 0.1 mm 3 mps 752 mmHg 86%
    07:00 +3°C° 0.1 mm 3 mps 753 mmHg 86%
    08:00 +4°C° 0.1 mm 2 mps 753 mmHg 86%
    09:00 +4°C° 0.1 mm 2 mps 753 mmHg 85%
    10:00 +4°C° 0 mm 2 mps 754 mmHg 82%
    11:00 +4°C° 0 mm 2 mps 754 mmHg 80%
    12:00 +4°C° 0 mm 2 mps 754 mmHg 77%
    13:00 +4°C° 0 mm 2 mps 754 mmHg 76%
    14:00 +4°C° 0 mm 2 mps 754 mmHg 74%
    15:00 +4°C° 0 mm 2 mps 754 mmHg 73%
    16:00 +4°C° 0 mm 2 mps 755 mmHg 75%
    17:00 +3°C° 0 mm 2 mps 755 mmHg 78%
    18:00 +2°C° 0 mm 2 mps 755 mmHg 80%
    19:00 +2°C° 0 mm 2 mps 755 mmHg 81%
    20:00 +2°C° 0 mm 2 mps 756 mmHg 82%
    21:00 +1°C° 0 mm 2 mps 756 mmHg 83%
    22:00 +1°C° 0 mm 2 mps 756 mmHg 82%
    23:00 +2°C° 0 mm 1 mps 756 mmHg 82%

    Day after tomorrow, 20 December, Wednesday

    Time Temperature Precipitation Wind Pressure Humidity
    00:00 +2°C° 0 mm 1 mps 757 mmHg 81%
    01:00 +2°C° 0 mm 1 mps 757 mmHg 81%
    02:00 +2°C° 0 mm 1 mps 757 mmHg 81%
    03:00 +1°C° 0 mm 1 mps 757 mmHg 81%
    04:00 +1°C° 0 mm 1 mps 757 mmHg 82%
    05:00 +1°C° 0 mm 1 mps 758 mmHg 83%
    06:00 +1°C° 0 mm 1 mps 758 mmHg 83%
    07:00 +1°C° 0 mm 1 mps 758 mmHg 83%
    08:00 +1°C° 0 mm 1 mps 759 mmHg 83%
    09:00 +1°C° 0 mm 1 mps 759 mmHg 82%
    10:00 +2°C° 0 mm 1 mps 759 mmHg 77%
    11:00 +3°C° 0 mm 1 mps 759 mmHg 72%
    12:00 +3°C° 0 mm 1 mps 760 mmHg 66%
    13:00 +3°C° 0 mm 1 mps 760 mmHg 65%
    14:00 +4°C° 0 mm 1 mps 760 mmHg 64%
    15:00 +4°C° 0 mm 1 mps 760 mmHg 63%
    16:00 +3°C° 0 mm 1 mps 760 mmHg 67%
    17:00 +3°C° 0 mm 1 mps 760 mmHg 70%
    18:00 +2°C° 0 mm 1 mps 760 mmHg 74%
    19:00 +2°C° 0 mm 1 mps 760 mmHg 75%
    20:00 +2°C° 0 mm 1 mps 761 mmHg 76%
    21:00 +2°C° 0 mm 1 mps 761 mmHg 77%
    22:00 +2°C° 0 mm 1 mps 761 mmHg 78%
    23:00 +2°C° 0 mm 1 mps 761 mmHg 80%

    21 December, Thursday

    Time Temperature Precipitation Wind Pressure Humidity
    00:00 +2°C° 0 mm 1 mps 761 mmHg 81%
    01:00 +2°C° 0 mm 1 mps 760 mmHg 81%
    02:00 +2°C° 0 mm 1 mps 760 mmHg 82%
    03:00 +2°C° 0 mm 1 mps 760 mmHg 83%
    04:00 +2°C° 0 mm 1 mps 760 mmHg 83%
    05:00 +1°C° 0 mm 1 mps 760 mmHg 84%
    06:00 -1°C° 0 mm 2 mps 760 mmHg 85%
    07:00 -1°C° 0 mm 2 mps 760 mmHg 85%
    08:00 -1°C° 0 mm 2 mps 760 mmHg 85%
    09:00 -1°C° 0 mm 2 mps 760 mmHg 85%
    10:00 +1°C° 0 mm 2 mps 760 mmHg 83%
    11:00 +1°C° 0 mm 2 mps 760 mmHg 80%
    12:00 +2°C° 0 mm 2 mps 760 mmHg 78%
    13:00 +2°C° 0 mm 2 mps 759 mmHg 77%
    14:00 +2°C° 0 mm 2 mps 759 mmHg 76%
    15:00 +2°C° 0 mm 2 mps 759 mmHg 75%
    16:00 +1°C° 0 mm 2 mps 759 mmHg 77%
    17:00 -1°C° 0 mm 2 mps 759 mmHg 79%
    18:00 -2°C° 0 mm 2 mps 759 mmHg 82%
    19:00 -2°C° 0 mm 2 mps 759 mmHg 82%
    20:00 -2°C° 0 mm 2 mps 759 mmHg 82%
    21:00 -2°C° 0 mm 2 mps 759 mmHg 81%
    22:00 -3°C° 0 mm 2 mps 759 mmHg 81%
    23:00 -3°C° 0 mm 2 mps 758 mmHg 81%

    22 December, Friday

    Time Temperature Precipitation Wind Pressure Humidity
    00:00 -3°C° 0 mm 2 mps 758 mmHg 80%
    01:00 -3°C° 0 mm 2 mps 758 mmHg 80%
    02:00 -3°C° 0 mm 2 mps 758 mmHg 79%
    03:00 -3°C° 0 mm 2 mps 757 mmHg 78%
    04:00 -3°C° 0 mm 2 mps 757 mmHg 77%
    05:00 -3°C° 0 mm 2 mps 757 mmHg 76%
    06:00 -4°C° 0 mm 2 mps 757 mmHg 75%
    07:00 -4°C° 0 mm 2 mps 757 mmHg 74%
    08:00 -4°C° 0 mm 2 mps 756 mmHg 73%
    09:00 -4°C° 0 mm 2 mps 756 mmHg 73%
    10:00 -3°C° 0 mm 2 mps 756 mmHg 69%
    11:00 -2°C° 0 mm 2 mps 756 mmHg 66%
    12:00 -1°C° 0 mm 2 mps 755 mmHg 63%
    13:00 -1°C° 0 mm 3 mps 755 mmHg 63%
    14:00 -1°C° 0 mm 3 mps 754 mmHg 62%
    15:00 -1°C° 0 mm 3 mps 754 mmHg 62%
    16:00 -2°C° 0 mm 3 mps 754 mmHg 64%
    17:00 -2°C° 0 mm 2 mps 754 mmHg 67%
    18:00 -2°C° 0 mm 2 mps 754 mmHg 70%
    19:00 -2°C° 0 mm 2 mps 754 mmHg 70%
    20:00 -2°C° 0 mm 2 mps 753 mmHg 70%
    21:00 -2°C° 0 mm 2 mps 753 mmHg 71%
    22:00 -4°C° 0 mm 3 mps 753 mmHg 71%
    23:00 -4°C° 0 mm 3 mps 753 mmHg 72%

    23 December, Saturday

    Time Temperature Precipitation Wind Pressure Humidity
    00:00 -4°C° 0 mm 3 mps 752 mmHg 73%
    01:00 -4°C° 0 mm 3 mps 752 mmHg 73%
    02:00 -4°C° 0 mm 3 mps 752 mmHg 74%
    03:00 -4°C° 0 mm 3 mps 751 mmHg 75%
    04:00 -4°C° 0 mm 4 mps 751 mmHg 76%
    05:00 -4°C° 0 mm 4 mps 750 mmHg 78%
    06:00 -4°C° 0 mm 4 mps 750 mmHg 79%
    07:00 -4°C° 0.1 mm 5 mps 749 mmHg 80%
    08:00 -4°C° 0.1 mm 5 mps 749 mmHg 82%
    09:00 -3°C° 0.1 mm 6 mps 748 mmHg 83%
    10:00 -3°C° 0.2 mm 6 mps 748 mmHg 82%
    11:00 -3°C° 0.2 mm 7 mps 747 mmHg 80%
    12:00 -2°C° 0.2 mm 7 mps 747 mmHg 79%
    13:00 -2°C° 0.1 mm 6 mps 746 mmHg 80%
    14:00 -2°C° 0.1 mm 6 mps 746 mmHg 81%
    15:00 -1°C° 0.1 mm 5 mps 745 mmHg 81%
    16:00 -1°C° 0.1 mm 4 mps 745 mmHg 84%
    17:00 -1°C° 0.1 mm 4 mps 745 mmHg 87%
    18:00 -2°C° 0.1 mm 4 mps 745 mmHg 90%
    19:00 -2°C° 0.1 mm 4 mps 745 mmHg 90%
    20:00 -2°C° 0.1 mm 4 mps 745 mmHg 91%
    21:00 -2°C° 0.1 mm 4 mps 745 mmHg 91%
    22:00 -2°C° 0 mm 4 mps 746 mmHg 91%
    23:00 -3°C° 0 mm 4 mps 746 mmHg 90%
    Show more